Campo, CA

3:21 AM PDT on July 17, 2019 (GMT -0700)
Campo

Weather History for KCZZ - May, 2019

Change the Weather History Date:

Thursday, May 23, 2019

  Actual Average Record
Temperature  
Mean Temperature 52 °F 62 °F  
Max Temperature 57 °F 81 °F 96 °F (2017)
Min Temperature 46 °F 43 °F 30 °F (1973)
Degree Days  
Heating Degree Days 13 4  
Month to date heating degree days 216 127  
Since 1 July heating degree days 2934 2895  
Cooling Degree Days 0 1  
Month to date cooling degree days 0 18  
Year to date cooling degree days 2 21  
Growing Degree Days 1 (Base 50)    
Moisture  
Dew Point 45 °F    
Average Humidity 80    
Maximum Humidity 93    
Minimum Humidity 67    
Precipitation  
Precipitation 0.00 in 0.00 in 0.45 in (1967)
Month to date precipitation 1.41 0.16  
Year to date precipitation 12.60 10.02  
Sea Level Pressure  
Sea Level Pressure 29.89 in    
Wind  
Wind Speed 11 mph (WSW)    
Max Wind Speed 17 mph    
Max Gust Speed 21 mph    
T = Trace of Precipitation, MM = Missing Value Source: NWS Daily Summary

Daily Weather History Graph

Daily Weather History Graph

Search for Another Location

Airport or City:

Astronomy

May. 23, 2019 Rise Set
Actual Time 5:42 AM PDT 7:42 PM PDT
Civil Twilight 5:15 AM PDT 8:10 PM PDT
Nautical Twilight 4:41 AM PDT 8:44 PM PDT
Astronomical Twilight 4:05 AM PDT 9:20 PM PDT
Moon No Moon Rise 9:51 AM PDT (5/23)
Length of Visible Light 14h 55m
Length of Day
14h 00m
Waning Gibbous, 76% of the Moon is Illuminated
May 23
Waning Gibbous
May 26
Last Quarter
Jun 3
New
Jun 9
First Quarter
Jun 17
Full

Hourly Weather History & Observations

Time (PDT) Temp. Windchill Dew Point Humidity Pressure Visibility Wind Dir Wind Speed Gust Speed Precip Events Conditions
12:52 AM 46.9 °F - 45.0 °F 93% 29.79 in - SW 6.9 mph - N/A   Unknown
1:52 AM 46.9 °F - 44.1 °F 90% 29.79 in - West 9.2 mph - N/A   Unknown
2:52 AM 46.9 °F - 45.0 °F 93% 29.78 in - SW 4.6 mph - N/A   Unknown
3:52 AM 46.9 °F - 44.1 °F 90% 29.81 in - SW 12.7 mph - N/A   Unknown
4:52 AM 46.9 °F - 45.0 °F 93% 29.81 in - SW 10.4 mph - N/A   Unknown
5:52 AM 46.9 °F - 45.0 °F 93% 29.83 in - SW 9.2 mph - N/A   Unknown
6:52 AM 48.0 °F - 46.0 °F 93% 29.85 in - SW 9.2 mph - N/A   Unknown
7:52 AM 48.9 °F - 46.0 °F 90% 29.87 in - SW 8.1 mph - N/A   Unknown
8:52 AM 48.9 °F - 46.9 °F 93% 29.90 in - SW 11.5 mph - N/A   Unknown
9:52 AM 51.1 °F - 48.0 °F 89% 29.91 in - WSW 15.0 mph - N/A   Unknown
10:52 AM 51.1 °F - 48.0 °F 89% 29.94 in - WSW 10.4 mph - N/A   Unknown
11:52 AM 55.9 °F - 46.9 °F 72% 29.93 in - SSW 15.0 mph 20.7 mph N/A   Unknown
12:52 PM 55.9 °F - 46.0 °F 69% 29.93 in - SW 15.0 mph 19.6 mph N/A   Unknown
1:52 PM 55.9 °F - 46.0 °F 69% 29.93 in - SW 12.7 mph - N/A   Unknown
2:52 PM 54.0 °F - 46.0 °F 75% 29.94 in - SW 13.8 mph - N/A   Unknown
3:52 PM 55.9 °F - 46.0 °F 69% 29.92 in - WSW 10.4 mph - N/A   Unknown
4:52 PM 57.0 °F - 46.9 °F 69% 29.92 in - WSW 5.8 mph - N/A   Unknown
5:52 PM 55.9 °F - 46.9 °F 72% 29.91 in - WSW 3.5 mph - N/A   Unknown
6:52 PM 55.0 °F - 46.9 °F 74% 29.91 in - WNW 6.9 mph - N/A   Unknown
7:52 PM 53.1 °F - 46.0 °F 77% 29.92 in - WNW 6.9 mph - N/A   Unknown
8:52 PM 50.0 °F - 46.0 °F 86% 29.93 in - Calm Calm - N/A   Unknown
9:52 PM 46.0 °F - 43.0 °F 89% 29.96 in - Calm Calm - N/A   Unknown
10:52 PM 45.0 °F 43.5 °F 42.1 °F 90% 29.96 in - NNW 3.5 mph - N/A   Unknown
11:52 PM 43.0 °F 41.3 °F 39.9 °F 89% 29.94 in - North 3.5 mph - N/A   Unknown